Hourly Weather Lecce

Today, 3 July, Friday

Time Temperature Precipitation Wind Pressure Humidity
00:00 +29°C° 0 mm 2 mps 752 mmHg 50%
01:00 +28°C° 0 mm 2 mps 752 mmHg 54%
02:00 +28°C° 0 mm 2 mps 752 mmHg 57%
03:00 +27°C° 0 mm 2 mps 751 mmHg 59%
04:00 +27°C° 0 mm 2 mps 751 mmHg 62%
05:00 +28°C° 0 mm 2 mps 751 mmHg 58%
06:00 +30°C° 0 mm 2 mps 752 mmHg 54%
07:00 +31°C° 0 mm 1 mps 752 mmHg 50%
08:00 +32°C° 0 mm 2 mps 752 mmHg 45%
09:00 +35°C° 0 mm 2 mps 752 mmHg 40%
10:00 +36°C° 0 mm 3 mps 752 mmHg 35%
11:00 +37°C° 0 mm 3 mps 752 mmHg 34%
12:00 +37°C° 0 mm 3 mps 752 mmHg 33%
13:00 +38°C° 0 mm 3 mps 752 mmHg 32%
14:00 +37°C° 0 mm 3 mps 752 mmHg 34%
15:00 +37°C° 0 mm 3 mps 752 mmHg 36%
16:00 +36°C° 0 mm 3 mps 751 mmHg 38%
17:00 +35°C° 0 mm 3 mps 752 mmHg 42%
18:00 +34°C° 0 mm 2 mps 752 mmHg 46%
19:00 +31°C° 0 mm 2 mps 752 mmHg 50%
20:00 +31°C° 0 mm 2 mps 752 mmHg 52%
21:00 +30°C° 0 mm 3 mps 752 mmHg 54%
22:00 +30°C° 0 mm 3 mps 753 mmHg 56%
23:00 +29°C° 0 mm 3 mps 753 mmHg 59%

Tomorrow, 4 July, Saturday

Time Temperature Precipitation Wind Pressure Humidity
00:00 +29°C° 0 mm 4 mps 753 mmHg 62%
01:00 +29°C° 0 mm 4 mps 753 mmHg 64%
02:00 +28°C° 0 mm 4 mps 753 mmHg 66%
03:00 +28°C° 0 mm 4 mps 752 mmHg 68%
04:00 +27°C° 0 mm 4 mps 752 mmHg 70%
05:00 +28°C° 0 mm 4 mps 752 mmHg 67%
06:00 +29°C° 0 mm 4 mps 753 mmHg 63%
07:00 +30°C° 0 mm 5 mps 753 mmHg 59%
08:00 +32°C° 0 mm 5 mps 753 mmHg 54%
09:00 +33°C° 0 mm 5 mps 753 mmHg 50%
10:00 +34°C° 0 mm 5 mps 753 mmHg 45%
11:00 +35°C° 0 mm 5 mps 753 mmHg 43%
12:00 +35°C° 0 mm 5 mps 753 mmHg 42%
13:00 +36°C° 0 mm 5 mps 753 mmHg 41%
14:00 +35°C° 0 mm 6 mps 752 mmHg 43%
15:00 +34°C° 0 mm 6 mps 752 mmHg 46%
16:00 +33°C° 0 mm 7 mps 752 mmHg 48%
17:00 +32°C° 0.6 mm 6 mps 752 mmHg 49%
18:00 +30°C° 0.6 mm 5 mps 752 mmHg 49%
19:00 +28°C° 0.6 mm 5 mps 752 mmHg 49%
20:00 +28°C° 0.2 mm 5 mps 752 mmHg 56%
21:00 +27°C° 0.2 mm 6 mps 753 mmHg 63%
22:00 +26°C° 0.2 mm 7 mps 753 mmHg 70%
23:00 +26°C° 0 mm 7 mps 753 mmHg 72%

Day after tomorrow, 5 July, Sunday

Time Temperature Precipitation Wind Pressure Humidity
00:00 +26°C° 0 mm 7 mps 753 mmHg 74%
01:00 +26°C° 0 mm 7 mps 753 mmHg 77%
02:00 +24°C° 0 mm 7 mps 752 mmHg 77%
03:00 +24°C° 0 mm 7 mps 752 mmHg 77%
04:00 +24°C° 0 mm 7 mps 752 mmHg 78%
05:00 +26°C° 0 mm 8 mps 752 mmHg 74%
06:00 +27°C° 0 mm 9 mps 752 mmHg 70%
07:00 +28°C° 0 mm 9 mps 752 mmHg 67%
08:00 +29°C° 0 mm 9 mps 752 mmHg 63%
09:00 +31°C° 0 mm 9 mps 752 mmHg 59%
10:00 +32°C° 0 mm 10 mps 752 mmHg 54%
11:00 +32°C° 0 mm 10 mps 752 mmHg 52%
12:00 +32°C° 0 mm 9 mps 752 mmHg 50%
13:00 +33°C° 0 mm 9 mps 751 mmHg 48%
14:00 +32°C° 0 mm 10 mps 751 mmHg 48%
15:00 +32°C° 0 mm 10 mps 751 mmHg 48%
16:00 +32°C° 0 mm 10 mps 751 mmHg 48%
17:00 +31°C° 0 mm 10 mps 751 mmHg 53%
18:00 +29°C° 0 mm 9 mps 751 mmHg 58%
19:00 +28°C° 0 mm 9 mps 751 mmHg 63%
20:00 +27°C° 0 mm 9 mps 751 mmHg 64%
21:00 +27°C° 0 mm 8 mps 751 mmHg 64%
22:00 +27°C° 0 mm 8 mps 751 mmHg 65%
23:00 +27°C° 0 mm 8 mps 751 mmHg 66%

6 July, Monday

Time Temperature Precipitation Wind Pressure Humidity
00:00 +27°C° 0 mm 8 mps 751 mmHg 68%
01:00 +27°C° 0 mm 8 mps 751 mmHg 70%
02:00 +27°C° 0 mm 8 mps 750 mmHg 70%
03:00 +27°C° 0 mm 8 mps 750 mmHg 71%
04:00 +27°C° 0 mm 8 mps 749 mmHg 71%
05:00 +27°C° 1 mm 7 mps 750 mmHg 70%
06:00 +28°C° 1 mm 6 mps 750 mmHg 68%
07:00 +28°C° 1 mm 5 mps 750 mmHg 67%
08:00 +29°C° 0.1 mm 6 mps 750 mmHg 62%
09:00 +30°C° 0.1 mm 6 mps 750 mmHg 57%
10:00 +32°C° 0.1 mm 7 mps 750 mmHg 52%
11:00 +32°C° 0 mm 7 mps 750 mmHg 51%
12:00 +32°C° 0 mm 8 mps 749 mmHg 49%
13:00 +33°C° 0 mm 8 mps 749 mmHg 47%
14:00 +32°C° 0 mm 8 mps 749 mmHg 48%
15:00 +32°C° 0 mm 8 mps 749 mmHg 49%
16:00 +32°C° 0 mm 8 mps 749 mmHg 50%
17:00 +31°C° 0 mm 8 mps 749 mmHg 55%
18:00 +29°C° 0 mm 7 mps 749 mmHg 60%
19:00 +28°C° 0 mm 6 mps 749 mmHg 64%
20:00 +27°C° 0 mm 6 mps 749 mmHg 67%
21:00 +27°C° 0 mm 5 mps 749 mmHg 69%
22:00 +26°C° 0 mm 5 mps 749 mmHg 71%
23:00 +26°C° 0 mm 5 mps 749 mmHg 72%

7 July, Tuesday

Time Temperature Precipitation Wind Pressure Humidity
00:00 +26°C° 0 mm 5 mps 749 mmHg 73%
01:00 +26°C° 0 mm 5 mps 749 mmHg 74%
02:00 +26°C° 0 mm 6 mps 749 mmHg 73%
03:00 +26°C° 0 mm 6 mps 749 mmHg 73%
04:00 +26°C° 0 mm 7 mps 749 mmHg 72%
05:00 +27°C° 0 mm 7 mps 749 mmHg 68%
06:00 +28°C° 0 mm 8 mps 749 mmHg 64%
07:00 +29°C° 0 mm 8 mps 749 mmHg 59%
08:00 +31°C° 0 mm 8 mps 749 mmHg 58%
09:00 +32°C° 0 mm 9 mps 750 mmHg 56%
10:00 +32°C° 0 mm 9 mps 750 mmHg 55%
11:00 +33°C° 0 mm 8 mps 750 mmHg 52%
12:00 +34°C° 0 mm 8 mps 750 mmHg 49%
13:00 +35°C° 0 mm 7 mps 750 mmHg 46%
14:00 +35°C° 0 mm 7 mps 750 mmHg 45%
15:00 +35°C° 0 mm 8 mps 750 mmHg 43%
16:00 +34°C° 0 mm 8 mps 750 mmHg 42%
17:00 +33°C° 0 mm 8 mps 750 mmHg 47%
18:00 +32°C° 0 mm 8 mps 751 mmHg 52%
19:00 +29°C° 0 mm 9 mps 751 mmHg 58%
20:00 +28°C° 0 mm 9 mps 751 mmHg 59%
21:00 +28°C° 0 mm 9 mps 752 mmHg 60%
22:00 +27°C° 0 mm 9 mps 752 mmHg 61%
23:00 +27°C° 0 mm 9 mps 753 mmHg 63%

8 July, Wednesday

Time Temperature Precipitation Wind Pressure Humidity
00:00 +27°C° 0 mm 9 mps 753 mmHg 65%
01:00 +26°C° 0 mm 9 mps 753 mmHg 67%
02:00 +26°C° 0 mm 9 mps 753 mmHg 67%
03:00 +26°C° 0 mm 9 mps 753 mmHg 68%
04:00 +26°C° 0 mm 9 mps 753 mmHg 68%
05:00 +26°C° 0 mm 9 mps 753 mmHg 66%
06:00 +27°C° 0 mm 9 mps 754 mmHg 63%
07:00 +28°C° 0 mm 9 mps 754 mmHg 61%
08:00 +29°C° 0 mm 9 mps 754 mmHg 58%
09:00 +29°C° 0 mm 9 mps 754 mmHg 55%
10:00 +31°C° 0 mm 9 mps 755 mmHg 52%
11:00 +32°C° 0 mm 9 mps 755 mmHg 50%
12:00 +32°C° 0 mm 8 mps 755 mmHg 49%
13:00 +32°C° 0 mm 8 mps 755 mmHg 48%
14:00 +32°C° 0 mm 8 mps 754 mmHg 48%
15:00 +32°C° 0 mm 8 mps 754 mmHg 48%
16:00 +31°C° 0 mm 8 mps 754 mmHg 48%
17:00 +29°C° 0 mm 8 mps 754 mmHg 52%
18:00 +28°C° 0 mm 8 mps 754 mmHg 55%
19:00 +27°C° 0 mm 8 mps 754 mmHg 59%
20:00 +27°C° 0 mm 7 mps 755 mmHg 63%
21:00 +26°C° 0 mm 7 mps 755 mmHg 68%
22:00 +26°C° 0 mm 7 mps 755 mmHg 72%
23:00 +26°C° 0 mm 7 mps 755 mmHg 73%
Show more